Zurück zum Katalog

SL-14 R/B

AktivPO
NORAD 15370·ROCKET BODY·🇷🇺 Russia

Gestartet Oct 18, 1984 von Plesetsk Cosmodrome

Loading…

Nächste Überflüge (nächste 24 Stunden)

TLE

AktuellSource: Space-Track

Epoche: Sep 14, 2026, 11:25 UTC

1 15370U 84111B   26257.47594993  .00000287  00000-0  29800-4 0  9993
2 15370  82.5121  78.7761 0021457  69.4886 290.8631 14.86195640243915

Verfolge SL-14 R/B in Echtzeit mit AllMySat

Download on the App Store